• MPC Preparation (Info)

  • MPEC 2006-B76 : 2006 BM55

    The following Minor Planet Electronic Circular may be linked-to from your own Web pages, but must not otherwise be redistributed electronically.

    A form allowing access to any MPEC is at the bottom of this page.


    Read MPEC 2006-B75 Read MPEC 2006-B77


    M.P.E.C. 2006-B76                                Issued 2006 Jan. 28, 18:37 UT
    
         The Minor Planet Electronic Circulars contain information on unusual
             minor planets and routine data on comets.  They are published
       on behalf of Commission 20 of the International Astronomical Union by the
              Minor Planet Center, Smithsonian Astrophysical Observatory,
                              Cambridge, MA 02138, U.S.A.
    
                      Supported in part by the Brinson Foundation
                      Supported in part by the TABASGO Foundation
                 Prepared using the Tamkin Foundation Computer Network
    
                                  MPC@CFA.HARVARD.EDU
              URL http://cfa-www.harvard.edu/iau/mpc.html  ISSN 1523-6714
    
                                       2006 BM55
    
    Observations:
         K06B55M* C2006 01 27.23826 08 01 23.73 +23 10 00.3          19.1 V EB076G96
         K06B55M  C2006 01 27.24828 08 01 20.38 +23 10 07.3          19.2 V EB076G96
         K06B55M  C2006 01 27.25379 08 01 18.51 +23 10 11.2          19.1 V EB076G96
         K06B55M  C2006 01 27.25925 08 01 16.68 +23 10 14.9          19.0 V EB076G96
         K06B55M  C2006 01 27.32755 08 00 53.56 +23 10 59.7          19.0 V EB076G96
         K06B55M  C2006 01 27.32792 08 00 53.42 +23 10 59.9          19.1 V EB076G96
         K06B55M  C2006 01 27.32828 08 00 53.31 +23 11 00.0          19.1 V EB076G96
         K06B55M  C2006 01 27.32864 08 00 53.20 +23 11 00.4          19.0 V EB076G96
         K06B55M  C2006 01 27.41726 08 00 23.04 +23 11 52.2          19.1 V EB076G96
         K06B55M  C2006 01 27.41763 08 00 22.93 +23 11 52.3          18.9 V EB076G96
         K06B55M  C2006 01 27.41799 08 00 22.82 +23 11 52.4          19.1 V EB076G96
         K06B55M  C2006 01 27.41835 08 00 22.68 +23 11 52.5          19.4 V EB076G96
         K06B55M  C2006 01 27.81779 07 58 17.38 +23 16 07.3          19.3 V EB076A44
         K06B55M  C2006 01 27.82809 07 58 13.66 +23 16 15.4          19.3 V EB076A44
         K06B55M  C2006 01 27.83919 07 58 09.59 +23 16 24.2          19.2 V EB076A44
         K06B55M  C2006 01 27.84947 07 58 05.82 +23 16 32.3          19.3 V EB076A44
         K06B55M  C2006 01 27.92509 07 57 37.59 +23 17 28.1                 EB076246
         K06B55M  C2006 01 27.92581 07 57 37.28 +23 17 29.1                 EB076246
         K06B55M  C2006 01 27.92705 07 57 36.84 +23 17 30.7                 EB076246
         K06B55M  C2006 01 27.92753 07 57 36.65 +23 17 30.9                 EB076246
         K06B55M  C2006 01 27.92794 07 57 36.51 +23 17 30.9          18.9 R EB076246
         K06B55M  C2006 01 28.05147 07 56 50.35 +23 18 54.6                 EB076J95
         K06B55M  C2006 01 28.05406 07 56 49.40 +23 18 56.2          18.8 R EB076J95
         K06B55M 5C2006 01 28.14560 07 56 21.95 +23 20 16.7          19.0 R EB076673
         K06B55M 5C2006 01 28.15417 07 56 18.60 +23 20 24.3                 EB076673
         K06B55M 5C2006 01 28.16539 07 56 14.16 +23 20 34.3                 EB076673
         K06B55M 5C2006 01 28.16736 07 56 13.37 +23 20 36.2                 EB076673
         K06B55M  C2006 01 28.24667 07 55 37.86 +23 21 31.8          19.4 R EB076932
         K06B55M  C2006 01 28.25405 07 55 34.87 +23 21 36.8          19.2 R EB076932
         K06B55M  C2006 01 28.28314 07 55 25.96 +23 22 16.6          19.1 R EB076651
         K06B55M  C2006 01 28.28408 07 55 25.54 +23 22 17.5          19.3 R EB076651
         K06B55M  C2006 01 28.28503 07 55 25.17 +23 22 17.7          19.3 R EB076651
         K06B55M  C2006 01 28.28950 07 55 20.46 +23 22 00.1          18.9 R EB076932
         K06B55M  C2006 01 28.41829 07 54 35.85 +23 25 30.6          19.2 R EB076474
         K06B55M  C2006 01 28.41979 07 54 35.20 +23 25 32.3          18.2 R EB076474
         K06B55M  C2006 01 28.42118 07 54 34.67 +23 25 34.0          18.7 R EB076474
    
    Observer details:
    246 Klet Observatory-KLENOT.  Observers J. Ticha, M. Tichy.  Measurer M. Tichy.
        1.06-m KLENOT Telescope + CCD.
    474 Mount John Observatory, Lake Tekapo.  Observer A. C. Gilmore.  0.6-m f/7.6
        reflector + CCD.
    651 Grasslands Observatory, Tucson.  Observer J. E. McGaha.  0.62-m f/5.1
        Newtonian reflector + CCD.
    673 Table Mountain Observatory, Wrightwood.  Observer J. Young.  0.6-m f/16
        Cassegrain + CCD.
    932 John J. McCarthy Obs., New Milford.  Observers J. Reynolds, M. Robson.
        Measurer J. Reynolds.  0.4-m f/6.5 Schmidt-Cassegrain + CCD.
    A44 Altschwendt.  Observer W. Ries.  0.30-m f/6 reflector + CCD.
    G96 Mt. Lemmon Survey.  Observer E. J. Christensen.  Measurers E. C. Beshore,
        E. J. Christensen, G. J. Garradd, A. D. Grauer, R. E. Hill, R. A. Kowalski,
        S. M. Larson, R. H. McNaught.  1.5-m reflector + CCD.
    J95 Great Shefford.  Observer P. Birtwhistle.  0.40-m f/6.0 Schmidt-Cassegrain
        + CCD.
    
    Orbital elements:
    2006 BM55                                                Earth MOID = 0.0008 AU
    Epoch 2006 Mar. 6.0 TT = JDT 2453800.5                  MPC
    M 356.85638              (2000.0)            P               Q
    n   0.22913979     Peri.  257.93007     -0.85042258     +0.52550555
    a   2.6448581      Node   313.76611     -0.46821698     -0.77767621
    e   0.7497719      Incl.    1.98442     -0.23990476     -0.34505600
    P   4.30           H   23.3           G   0.15           U   7
    Residuals in seconds of arc
    060127 G96  0.4+  0.0     060127 A44  0.1+  0.1+    060128 673  0.4-  0.0
    060127 G96  0.4+  0.0     060127 A44  0.4+  0.0     060128 673  1.1-  0.2+
    060127 G96  0.0   0.0     060127 A44  0.1+  0.0     060128 673  1.4-  0.3+
    060127 G96  0.0   0.0     060127 A44  0.1+  0.0     060128 932  0.4+  0.3-
    060127 G96  0.0   0.0     060127 246  0.8+  0.7-    060128 932  0.5+  0.3-
    060127 G96  0.2-  0.0     060127 246  0.2+  0.3-    060128 651  0.6+  0.3+
    060127 G96  0.0   0.2-    060127 246  0.6+  0.4+    060128 651  0.2+  0.4+
    060127 G96  0.1+  0.0     060127 246  0.5+  0.3+    060128 651  0.5+  0.1-
    060127 G96  0.4-  0.2+    060127 246  0.7+  0.0     060128 932  0.5+  0.3-
    060127 G96  0.2-  0.1+    060128 J95  0.5-  0.1+    060128 474  0.4-  0.3-
    060127 G96  0.1-  0.0     060128 J95  0.1+  0.1-    060128 474  0.7-  0.1+
    060127 G96  0.3-  0.1-    060128 673  0.1-  0.0     060128 474  0.1+  0.7+
    
    Ephemeris:
    2006 BM55                a,e,i = 2.64, 0.75, 2                   q = 0.6618
    Date    TT    R. A. (2000) Decl.     Delta      r     Elong.  Phase     V
    2006 01 25    08 10.60   +22 49.1    0.138    1.122   174.4     4.9    19.7
    2006 01 26    08 06.95   +22 57.8    0.126    1.110   172.7     6.5    19.5
    2006 01 27    08 02.55   +23 07.7    0.114    1.098   170.8     8.3    19.4
    2006 01 28    07 57.18   +23 19.0    0.103    1.086   168.6    10.3    19.2
    2006 01 29    07 50.47   +23 31.9    0.0914   1.074   166.1    12.7    19.0
    2006 01 30    07 41.88   +23 46.8    0.0801   1.062   163.2    15.6    18.8
    2006 01 31    07 30.51   +24 03.4    0.0690   1.050   159.6    19.1    18.6
    2006 02 01    07 14.82   +24 20.8    0.0581   1.038   155.0    23.6    18.3
    2006 02 02    06 52.04   +24 35.2    0.0475   1.026   148.9    29.8    18.0
    2006 02 03    06 16.84   +24 31.8    0.0376   1.015   139.9    38.7    17.8
    2006 02 04    05 19.26   +23 19.9    0.0289   1.003   125.7    52.9    17.6
    2006 02 05    03 46.97   +18 34.1    0.0228   0.991   102.7    76.0    17.7
    2006 02 06    01 51.80   +08 12.1    0.0218   0.980    71.9   106.8    18.9
    2006 02 07    00 18.33   -02 18.6    0.0263   0.968    45.4   133.5    21.4
    
    Kyle E. Smalley              (C) Copyright 2006 MPC           M.P.E.C. 2006-B76
    

    Read MPEC 2006-B75 Read MPEC 2006-B77


    MPEC number:

    Enter an MPEC number in one of the following forms:

    • 1997-B01 (the full form)
    • J97B01 (the packed version of the full form)
    • B01 (the abbreviated form)